TimeEST,TemperatureF,Dew PointF,Humidity,Sea Level PressureIn,VisibilityMPH,Wind Direction,Wind SpeedMPH,Gust SpeedMPH,PrecipitationIn,Events,Conditions,WindDirDegrees,DateUTC
12:55 AM,67.6,62.4,83,30.01,10.0,WSW,5.8,-,N/A,,Clear,240,2012-11-05 05:55:00
1:55 AM,66.0,61.5,85,30.00,10.0,SW,6.9,-,N/A,,Clear,220,2012-11-05 06:55:00
2:55 AM,65.8,60.1,82,29.99,10.0,West,5.8,-,N/A,,Clear,260,2012-11-05 07:55:00
3:55 AM,65.3,61.2,86,29.99,10.0,West,5.8,-,N/A,,Clear,260,2012-11-05 08:55:00
4:55 AM,64.9,61.2,88,29.99,10.0,West,6.9,-,N/A,,Clear,270,2012-11-05 09:55:00
5:55 AM,65.3,62.6,91,30.00,10.0,West,6.9,-,N/A,,Clear,270,2012-11-05 10:55:00
6:55 AM,65.3,63.3,93,30.01,10.0,West,8.1,-,N/A,,Clear,260,2012-11-05 11:55:00
7:55 AM,68.2,64.4,88,30.01,10.0,West,5.8,-,N/A,,Clear,260,2012-11-05 12:55:00
8:55 AM,71.2,64.8,80,30.01,10.0,West,6.9,-,N/A,,Clear,280,2012-11-05 13:55:00
9:55 AM,72.9,64.8,76,30.01,10.0,NW,5.8,-,N/A,,Clear,320,2012-11-05 14:55:00
10:55 AM,73.4,64.9,75,30.01,10.0,WNW,5.8,-,N/A,,Clear,300,2012-11-05 15:55:00
11:55 AM,74.3,65.1,73,29.99,10.0,NNW,5.8,-,N/A,,Scattered Clouds,340,2012-11-05 16:55:00
12:55 PM,75.4,66.4,73,29.97,10.0,ENE,8.1,-,N/A,,Partly Cloudy,60,2012-11-05 17:55:00
1:55 PM,74.5,67.1,78,29.95,10.0,East,9.2,-,N/A,,Clear,80,2012-11-05 18:55:00
2:55 PM,73.2,66.2,79,29.94,10.0,East,8.1,-,N/A,,Clear,80,2012-11-05 19:55:00
3:55 PM,72.5,66.0,80,29.94,10.0,ENE,8.1,-,N/A,,Clear,70,2012-11-05 20:55:00
4:55 PM,72.5,63.9,74,29.94,10.0,ENE,6.9,-,N/A,,Clear,70,2012-11-05 21:55:00
5:55 PM,70.9,63.1,76,29.95,10.0,NE,6.9,-,N/A,,Clear,40,2012-11-05 22:55:00
6:55 PM,69.8,63.5,80,29.96,10.0,NNE,4.6,-,N/A,,Clear,30,2012-11-05 23:55:00
7:55 PM,69.3,63.7,82,29.97,10.0,North,5.8,-,N/A,,Partly Cloudy,10,2012-11-06 00:55:00
8:55 PM,69.3,63.3,81,29.98,10.0,North,4.6,-,N/A,,Clear,360,2012-11-06 01:55:00
9:55 PM,69.6,63.9,82,29.98,10.0,NNW,4.6,-,N/A,,Clear,340,2012-11-06 02:55:00
10:55 PM,69.1,64.4,85,29.97,10.0,NW,5.8,-,N/A,,Mostly Cloudy,320,2012-11-06 03:55:00
11:55 PM,68.7,64.2,86,29.95,10.0,North,6.9,-,N/A,,Partly Cloudy,350,2012-11-06 04:55:00